Weather Roundup
Issued by NWS Corpus Christi, TX

Home | Current Version | Previous Version | Text Only | Print | Product List | Glossary On
Versions: 1 2 3 4 5 6 7 8 9 10 11 12 13 14 15 16 17 18 19 20 21 22 23 24 25 26 27 28 29 30 31 32 33 34 35 36 37 38 39 40 41 42 43 44 45 46 47 48 49 50
000
ASUS44 KCRP 161310
HRRCRP

SOUTH TEXAS REGIONAL WEATHER ROUNDUP
NATIONAL WEATHER SERVICE CORPUS CHRISTI TX
800 AM CDT WED AUG 16 2017


TXZ229>244-161400-
...CORPUS CHRISTI AREA OBSERVATIONS...

CITY           SKY/WX    TMP DP  RH WIND       PRES   REMARKS
CORPUS CHRISTI MOSUNNY   81  78  91 S12       29.91S
NAS CORPUS CHR PTSUNNY   85  80  85 S12       29.92R HX  99
ROCKPORT       SUNNY     84  77  79 S10       29.93R HX  94
KINGSVILLE NAS PTSUNNY   82  79  90 SE9       29.91R HX  92
ALICE          CLOUDY    80  76  87 S9        29.91R
FALFURRIAS     SUNNY     80  77  90 SE7       29.90R
$$

...VICTORIA AREA OBSERVATIONS...

CITY           SKY/WX    TMP DP  RH WIND       PRES   REMARKS
VICTORIA       MOSUNNY   83  77  82 S12       29.94R HX  92
BEEVILLE       PTSUNNY   81  81 100 S8        29.93R HX  92
PLEASANTON     SUNNY     80  73  81 S5        29.93R
SAN ANTONIO    PTSUNNY   80  72  76 S10       29.95R
$$

...LAREDO AREA OBSERVATIONS...

CITY           SKY/WX    TMP DP  RH WIND       PRES   REMARKS
LAREDO         MOSUNNY   81  74  79 SE13      29.90R
COTULLA        MOSUNNY   80  73  79 SE7       29.91R
DEL RIO        CLOUDY    78  74  87 SE6       29.89R
MCALLEN        SUNNY     82  76  81 SE10      29.90R
HEBBRONVILLE   SUNNY     76  73  90 S5        29.92R FOG
$$

...OTHER TEXAS OBSERVATIONS...

CITY           SKY/WX    TMP DP  RH WIND       PRES   REMARKS
BROWNSVILLE    MOSUNNY   81  79  94 S13       29.91R HX  90
HOUSTON        MOSUNNY   84  78  82 S7        29.96F HX  95
COL. STATION   SUNNY     80  78  94 SE7       29.96R
AUSTIN         PTSUNNY   81  76  84 S9        29.95R
WACO           PTSUNNY   80  75  84 S12       29.94R
FORT WORTH     CLOUDY    82  74  76 S15       29.90R
WICHITA FALLS  CLOUDY    79  71  76 S8        29.87R
LUBBOCK        MOCLDY    70  66  87 SW8       29.94S
EL PASO        PTCLDY    79  53  40 NW13G20   30.03R
$$

...MARINE OBSERVATIONS...

STATION/POSITION TIME  SKY/WX   TEMP    WIND        PRES    VSBY  WAVE   SWELL
                                AIR SEA DIR/SP/G                  HT/PER HT/PER
                 (UTC)          (F)     (DEG/KT/KT) (MB)    (MI)  (FT/S) (FT/S)
PORT ARANSAS     1200            83 85  160/ 15/ 17 1012.5R
BUOY 90 E PORT A 1250            86 85  160/ 17/ 21 1013.7R         5/ 6
BUOY 45 SE BAFFI 1150            85     160/ 19/ 21 1011.4          6/ 7
BUOY 200 E PT IS 1250            87 88  150/ 16/ 19 1015.0R         4/ 6
BUOY 15 E GALVES 1150            86 87  200/ 17/ 19 1014.1          5/ 6
$$




USA.gov is the U.S. government's official web portal to all federal, state and local government web resources and services.